Location: Kalberh�ni
(46.4610°N, 7.2453°E)
Time: 20:36:59
(UTC+00:00)

Cosmos 1626 - Pass Details

Date: 25 October 2021
Orbit: 487 x 492 km, 82.5° (Epoch: 03 December)

Event Time Altitude Azimuth Distance (km) Brightness Sun altitude
Exits shadow 04:55:06 17° 250° (WSW) 1,318 3.7 -12.2°
Maximum altitude 04:56:48 23° 288° (WNW) 1,096 3.3 -11.9°
Drops below altitude 10° 04:59:48 10° 342° (NNW) 1,699 4.6 -11.4°
Sets 05:02:16 0° 357° (N) 2,587 5.7 -11.0°
